"2010-02-04 00:00:00",1650519,7.297,127.5,5.732,1.004,8.08,101.5948,3.369,4.706,34.41,0,109.8,13.52,4.13,89.5
"2010-02-04 00:00:30",1650520,6.329,125.8,6.166,1.251,6.944,101.5948,3.369,4.67,33.79,0,109.8,13.52,4.13,87.8
"2010-02-04 00:01:00",1650521,6.755,126.4,5.874,1.253,7.252,101.5951,3.37,4.645,33.27,0,109.8,13.52,4.13,88.4
"2010-02-04 00:01:30",1650522,6.9,125,8.33,1.279,6.996,101.583,3.339,4.56,33.08,0,109.8,13.52,4.10,87.0
"2010-02-04 00:02:00",1650523,7.035,130,5.441,0.969,7.961,101.5722,3.311,4.643,33.08,0,109.8,13.52,4.07,92.0
"2010-02-04 00:02:30",1650524,7.133,128.8,5.749,1.162,7.498,101.5618,3.284,4.63,32.78,0,109.8,13.52,4.05,90.8
"2010-02-04 00:03:00",1650525,7.16,131.3,5.729,1.168,7.901,101.5615,3.284,4.646,32.98,0,109.8,13.51,4.05,93.3
"2010-02-04 00:03:30",1650526,7.023,132.4,6.155,1.174,7.689,101.5612,3.283,4.573,32.83,0,109.8,13.51,4.05,94.4
"2010-02-04 00:04:00",1650527,6.622,130.3,6.131,1.228,7.107,101.5612,3.283,4.599,32.81,0,109.8,13.51,4.05,92.3
"2010-02-04 00:04:30",1650528,7.565,130.8,10.5,1.152,7.49,101.5618,3.284,4.479,33.34,0,109.8,13.51,4.05,92.8
"2010-02-04 00:05:00",1650529,6.992,139.9,5.499,1.09,8.25,101.5612,3.283,4.568,33.41,0,109.8,13.51,4.05,101.9
"2010-02-04 00:05:30",1650530,6.349,132.5,7.866,1.335,7.009,101.5615,3.284,4.525,33.14,0,109.8,13.51,4.05,94.5
"2010-02-04 00:06:00",1650531,6.9,140,6.873,1.113,8.3,101.5587,3.276,4.555,33.07,0,109.8,13.51,4.04,102.0
"2010-02-04 00:06:30",1650532,6.612,138.3,8.31,1.072,8.01,101.5547,3.266,4.512,33.05,0,109.8,13.51,4.03,100.3
"2010-02-04 00:07:00",1650533,4.626,119.6,7.357,0.978,5.381,101.549,3.252,4.377,33.49,0,109.8,13.51,4.02,81.6
"2010-02-04 00:07:30",1650534,6.335,134.4,6.082,1.645,7.421,101.5386,3.225,4.578,33.78,0,109.7,13.51,3.99,96.4
"2010-02-04 00:08:00",1650535,6.79,135.7,6.702,1.176,7.532,101.5324,3.209,4.515,33.21,0,109.8,13.52,3.97,97.7
"2010-02-04 00:08:30",1650536,6.818,141.4,6.199,0.978,8.38,101.5284,3.199,4.51,33.39,0,109.8,13.52,3.96,103.4
"2010-02-04 00:09:00",1650537,6.536,137.1,6.126,1.043,7.528,101.5278,3.198,4.533,34.22,0,109.8,13.53,3.96,99.1
"2010-02-04 00:09:30",1650538,7.21,134.9,7.57,1.14,7.703,101.529,3.201,4.533,34.11,0,109.8,13.52,3.96,96.9
"2010-02-04 00:10:00",1650539,4.975,112.8,14.68,1.572,7.081,101.5296,3.202,4.518,34.9,0,109.8,13.52,3.97,74.8
"2010-02-04 00:10:30",1650540,5.026,119.3,9.68,1.328,5.318,101.5293,3.201,4.296,35.62,0,109.8,13.53,3.96,81.3
"2010-02-04 00:11:00",1650541,6.091,130.4,6.379,1.512,6.7,101.5301,3.204,4.441,34.27,0,109.8,13.53,3.97,92.4
"2010-02-04 00:11:30",1650542,7.157,134.8,6.826,1.128,7.447,101.5333,3.212,4.469,33.69,0,109.8,13.53,3.98,96.8
"2010-02-04 00:12:00",1650543,7.18,140.4,5.37,0.947,8.73,101.5282,3.199,4.496,33.58,0,109.8,13.53,3.96,102.4
"2010-02-04 00:12:30",1650544,7.048,144.9,4.988,0.932,8.82,101.5246,3.189,4.486,33.56,0,109.8,13.53,3.95,106.9
"2010-02-04 00:13:00",1650545,6.555,145.3,6.156,1.157,8.03,101.5215,3.182,4.501,33.56,0,109.8,13.53,3.94,107.3
"2010-02-04 00:13:30",1650546,5.102,139.9,3.843,0.908,5.735,101.5204,3.179,4.396,33.48,0,109.7,13.53,3.94,101.9
"2010-02-04 00:14:00",1650547,4.275,122.5,10.86,0.826,4.499,101.5139,3.162,4.314,33.45,0,109.8,13.53,3.93,84.5
"2010-02-04 00:14:30",1650548,6.144,148.3,9.38,1.345,7.827,101.5184,3.174,4.414,33.82,0,109.7,13.53,3.94,110.3
"2010-02-04 00:15:00",1650549,7.084,148.8,4.994,0.897,8.72,101.5173,3.171,4.422,33.82,0,109.7,13.53,3.93,110.8
"2010-02-04 00:15:30",1650550,6.9,139.8,6.417,1.092,8.37,101.5173,3.171,4.481,33.71,0,109.8,13.53,3.93,101.8
"2010-02-04 00:16:00",1650551,7.187,142.8,5.337,0.867,8.73,101.5193,3.176,4.46,33.68,0,109.7,13.53,3.94,104.8
"2010-02-04 00:16:30",1650552,5.967,139.5,6.848,1.23,6.563,101.5205,3.179,4.389,33.65,0,109.7,13.53,3.94,101.5
"2010-02-04 00:17:00",1650553,5.469,138.1,5.03,0.972,5.45,101.5245,3.189,4.407,33.66,0,109.7,13.53,3.95,100.1
"2010-02-04 00:17:30",1650554,6.909,141,6.086,1.034,7.723,101.5273,3.196,4.325,33.87,0,109.7,13.53,3.96,103.0
"2010-02-04 00:18:00",1650555,6.459,142.3,6.107,1.157,8.18,101.5253,3.191,4.469,33.82,0,109.7,13.53,3.95,104.3
"2010-02-04 00:18:30",1650556,7.284,148.1,3.814,0.664,9.2,101.5322,3.209,4.491,33.83,0,109.7,13.53,3.97,110.1
"2010-02-04 00:19:00",1650557,6.876,146.6,5.411,1.135,8.18,101.5344,3.215,4.452,33.84,0,109.7,13.53,3.98,108.6
"2010-02-04 00:19:30",1650558,6.118,140.4,7.347,1.338,6.239,101.5381,3.224,4.28,33.67,0,109.7,13.52,3.99,102.4
"2010-02-04 00:20:00",1650559,6.076,141.9,8.6,1.366,6.795,101.537,3.221,4.374,33.74,0,109.7,13.52,3.98,103.9
"2010-02-04 00:20:30",1650560,6.499,146.8,6.706,1.143,7.811,101.5415,3.233,4.438,33.87,0,109.7,13.52,4.00,108.8
"2010-02-04 00:21:00",1650561,6.824,147.5,5.964,1.076,8.51,101.5435,3.238,4.448,33.93,0,109.7,13.52,4.00,109.5
"2010-02-04 00:21:30",1650562,7.421,141.4,4.985,0.793,8.96,101.5443,3.24,4.472,34.22,0,109.7,13.52,4.00,103.4
"2010-02-04 00:22:00",1650563,6.536,137,5.657,1.137,7.339,101.5432,3.237,4.399,34.11,0,109.7,13.52,4.00,99.0
"2010-02-04 00:22:30",1650564,6.324,140.1,6.217,1.174,6.806,101.5424,3.235,4.328,33.95,0,109.7,13.52,4.00,102.1
"2010-02-04 00:23:00",1650565,5.933,139,6.817,1.163,6.446,101.5418,3.233,4.373,33.87,0,109.7,13.52,4.00,101.0
"2010-02-04 00:23:30",1650566,6.599,140.7,5.375,1.059,7.47,101.5418,3.233,4.385,33.87,0,109.7,13.52,4.00,102.7
"2010-02-04 00:24:00",1650567,6.947,142.9,5.377,0.819,8.69,101.5401,3.229,4.515,34.02,0,109.7,13.53,3.99,104.9
"2010-02-04 00:24:30",1650568,6.411,146.4,5.846,1.142,7.816,101.5395,3.228,4.388,33.97,0,109.7,13.53,3.99,108.4
"2010-02-04 00:25:00",1650569,6.116,145.4,6.72,1.277,7.309,101.5407,3.231,4.457,34.1,0,109.7,13.53,3.99,107.4
"2010-02-04 00:25:30",1650570,5.482,144,6.076,1.216,6.327,101.5441,3.239,4.319,34.04,0,109.7,13.53,4.00,106.0
"2010-02-04 00:26:00",1650571,6.316,150.4,6.18,1.1,7.467,101.5416,3.233,4.383,34.11,0,109.7,13.53,4.00,112.4
"2010-02-04 00:26:30",1650572,5.925,151.6,6.41,1.105,7.487,101.5376,3.223,4.481,34.21,0,109.7,13.53,3.99,113.6
"2010-02-04 00:27:00",1650573,6.71,159.5,4.89,1.085,8.45,101.5384,3.225,4.516,34.27,0,109.7,13.53,3.99,121.5
"2010-02-04 00:27:30",1650574,6.702,156.3,7.107,1.135,7.425,101.5399,3.229,4.409,34.2,0,109.7,13.53,3.99,118.3
"2010-02-04 00:28:00",1650575,6.54,154.4,6.84,1.285,7.243,101.5424,3.235,4.43,34.23,0,109.7,13.53,4.00,116.4
"2010-02-04 00:28:30",1650576,5.746,153.4,5.805,1.059,6.378,101.5453,3.242,4.316,34.16,0,109.7,13.53,4.01,115.4
"2010-02-04 00:29:00",1650577,6.244,151.6,6.595,1.27,7.048,101.5475,3.248,4.434,34.27,0,109.7,13.53,4.01,113.6
"2010-02-04 00:29:30",1650578,6.344,153.2,6.296,1.12,7.909,101.5473,3.247,4.416,34.27,0,109.7,13.53,4.01,115.2
"2010-02-04 00:30:00",1650579,6.556,152.2,5.311,0.962,8.4,101.5492,3.252,4.466,34.33,0,109.7,13.53,4.02,114.2
"2010-02-04 00:30:30",1650580,6.242,148,6.364,1.193,7.207,101.5484,3.25,4.398,34.31,0,109.7,13.53,4.01,110.0
"2010-02-04 00:31:00",1650581,6.061,145.2,7.015,1.355,6.534,101.5498,3.254,4.409,34.34,0,109.7,13.53,4.02,107.2
"2010-02-04 00:31:30",1650582,5.68,145.5,6.066,1.056,5.752,101.5507,3.256,4.393,34.38,0,109.7,13.53,4.02,107.5
"2010-02-04 00:32:00",1650583,6.315,150.4,5.668,1.142,7.549,101.551,3.257,4.451,34.43,0,109.7,13.53,4.02,112.4
"2010-02-04 00:32:30",1650584,6.018,148.2,6.594,1.25,7.276,101.549,3.252,4.484,34.52,0,109.7,13.53,4.02,110.2
"2010-02-04 00:33:00",1650585,6.535,151.5,5.001,1.06,8.09,101.5484,3.25,4.492,34.55,0,109.7,13.53,4.01,113.5
"2010-02-04 00:33:30",1650586,6.484,151.8,5.916,1.103,7.879,101.5467,3.246,4.398,34.48,0,109.8,13.53,4.01,113.8
"2010-02-04 00:34:00",1650587,6.395,147.2,6.25,1.193,6.867,101.5459,3.244,4.413,34.56,0,109.7,13.53,4.01,109.2
"2010-02-04 00:34:30",1650588,6.134,148.4,7.071,1.105,6.211,101.5439,3.239,4.414,34.59,0,109.7,13.53,4.00,110.4
"2010-02-04 00:35:00",1650589,6.635,149.4,5.989,1.098,7.364,101.5411,3.232,4.409,34.59,0,109.7,13.53,4.00,111.4
"2010-02-04 00:35:30",1650590,7.225,153.1,4.892,1.152,8.56,101.5414,3.232,4.486,34.68,0,109.7,13.53,4.00,115.1
"2010-02-04 00:36:00",1650591,7.673,154.9,5.133,0.621,9.02,101.5374,3.222,4.528,34.81,0,109.7,13.53,3.99,116.9
"2010-02-04 00:36:30",1650592,6.615,148.6,6.989,1.164,7.312,101.5368,3.221,4.419,34.73,0,109.7,13.53,3.98,110.6
"2010-02-04 00:37:00",1650593,5.546,144.8,5.561,1.139,5.968,101.5334,3.212,4.366,34.66,0,109.7,13.53,3.98,106.8
"2010-02-04 00:37:30",1650594,5.566,149,6.39,1.203,6.078,101.5303,3.204,4.334,34.62,0,109.7,13.53,3.97,111.0
"2010-02-04 00:38:00",1650595,6.241,153.8,6.769,1.214,7.529,101.53,3.203,4.421,34.75,0,109.7,13.53,3.97,115.8
"2010-02-04 00:38:30",1650596,6.268,153.3,6.739,1.179,7.043,101.5281,3.198,4.361,34.75,0,109.7,13.53,3.96,115.3
"2010-02-04 00:39:00",1650597,6.903,162.7,5.258,0.94,8.89,101.5275,3.197,4.504,34.93,0,109.7,13.53,3.96,124.7
"2010-02-04 00:39:30",1650598,6.701,160.3,5.546,0.985,8.29,101.5275,3.197,4.509,35.01,0,109.7,13.53,3.96,122.3
"2010-02-04 00:40:00",1650599,6.501,158,6.912,1.186,7.466,101.5275,3.197,4.396,34.9,0,109.7,13.53,3.96,120.0
"2010-02-04 00:40:30",1650600,5.344,150.9,6.246,1.175,5.765,101.5275,3.197,4.375,34.88,0,109.7,13.53,3.96,112.9
"2010-02-04 00:41:00",1650601,5.08,150.9,3.463,0.798,4.272,101.5275,3.197,4.209,34.79,0,109.7,13.53,3.96,112.9
"2010-02-04 00:41:30",1650602,6.617,156.6,7.44,1.505,7.119,101.5275,3.197,4.4,35.04,0,109.7,13.54,3.96,118.6
"2010-02-04 00:42:00",1650603,7.481,160.2,5.059,0.796,9.44,101.5275,3.197,4.522,35.22,0,109.7,13.54,3.96,122.2
"2010-02-04 00:42:30",1650604,7.175,160.7,3.776,0.593,9.1,101.5275,3.197,4.52,35.2,0,109.7,13.54,3.96,122.7
"2010-02-04 00:43:00",1650605,6.711,155.4,6.651,1.086,7.462,101.5275,3.197,4.401,35.14,0,109.7,13.54,3.96,117.4
"2010-02-04 00:43:30",1650606,5.893,151.4,5.738,1.14,5.994,101.5275,3.197,4.344,35.15,0,109.7,13.54,3.96,113.4
"2010-02-04 00:44:00",1650607,5.306,154,3.03,0.17,4.334,101.5275,3.197,4.275,35.1,0,109.7,13.56,3.96,116.0
"2010-02-04 00:44:30",1650608,6.489,157.7,6.255,1.122,7.902,101.5275,3.197,4.457,35.3,0,109.7,13.54,3.96,119.7
"2010-02-04 00:45:00",1650609,6.773,159.5,5.692,0.877,8.67,101.5275,3.197,4.502,35.31,0,109.7,13.54,3.96,121.5
"2010-02-04 00:45:30",1650610,6.684,159.9,4.027,0.869,8.81,101.5275,3.197,4.497,35.37,0,109.7,13.54,3.96,121.9
"2010-02-04 00:46:00",1650611,6.635,158.4,7.496,1.106,7.903,101.5275,3.197,4.441,35.32,0,109.7,13.54,3.96,120.4
"2010-02-04 00:46:30",1650612,5.862,152.6,6.455,1.14,6.077,101.5275,3.197,4.349,35.3,0,109.7,13.54,3.96,114.6
"2010-02-04 00:47:00",1650613,5.541,150.7,5.939,1.194,5.524,101.5275,3.197,4.353,35.35,0,109.7,13.54,3.96,112.7
"2010-02-04 00:47:30",1650614,6.856,158.3,8.08,1.204,7.164,101.5275,3.197,4.388,35.42,0,109.7,13.54,3.96,120.3
"2010-02-04 00:48:00",1650615,7.049,161,4.504,0.997,8.9,101.5275,3.197,4.539,35.56,0,109.7,13.54,3.96,123.0
"2010-02-04 00:48:30",1650616,6.868,164.5,5.101,0.975,8.86,101.5275,3.197,4.474,35.6,0,109.7,13.54,3.96,126.5
"2010-02-04 00:49:00",1650617,7.004,161.8,4.842,0.95,8.36,101.5275,3.197,4.474,35.58,0,109.7,13.54,3.96,123.8
"2010-02-04 00:49:30",1650618,6.063,159,5.903,1.263,6.134,101.5275,3.197,4.339,35.5,0,109.7,13.54,3.96,121.0
"2010-02-04 00:50:00",1650619,5.843,160.4,6.524,1.313,6.033,101.5275,3.197,4.266,35.44,0,109.7,13.54,3.96,122.4
"2010-02-04 00:50:30",1650620,5.646,161.7,4.786,1.267,6.376,101.5275,3.197,4.39,35.57,0,109.7,13.54,3.96,123.7
"2010-02-04 00:51:00",1650621,6.258,163.5,7.286,0.973,7.795,101.5275,3.197,4.441,35.62,0,109.7,13.54,3.96,125.5
"2010-02-04 00:51:30",1650622,6.349,160.7,5.059,0.944,8.56,101.5275,3.197,4.51,35.72,0,109.7,13.54,3.96,122.7
"2010-02-04 00:52:00",1650623,6.615,159.4,6.61,1.107,8.22,101.5275,3.197,4.503,35.74,0,109.7,13.53,3.96,121.4
"2010-02-04 00:52:30",1650624,6.277,156.5,7.498,1.256,6.493,101.5275,3.197,4.34,35.64,0,109.7,13.53,3.96,118.5
"2010-02-04 00:53:00",1650625,6.235,154.6,5.716,0.681,5.212,101.5269,3.195,4.224,35.58,0,109.7,13.53,3.96,116.6
"2010-02-04 00:53:30",1650626,6.977,158.3,5.63,1.022,7.479,101.5272,3.196,4.414,35.84,0,109.7,13.53,3.96,120.3
"2010-02-04 00:54:00",1650627,6.686,156.8,4.942,1.135,7.208,101.5266,3.195,4.345,35.79,0,109.7,13.53,3.96,118.8
"2010-02-04 00:54:30",1650628,6.532,159.7,5.386,0.964,8.51,101.5275,3.197,4.467,35.87,0,109.8,13.53,3.96,121.7
"2010-02-04 00:55:00",1650629,6.624,163,6.869,1.153,7.998,101.5269,3.195,4.409,35.84,0,109.7,13.53,3.96,125.0
"2010-02-04 00:55:30",1650630,6.637,164.8,5.048,0.783,8.75,101.5269,3.195,4.399,35.86,0,109.7,13.53,3.96,126.8
"2010-02-04 00:56:00",1650631,4.57,153.5,4.358,0.7,4.422,101.5261,3.193,4.291,35.73,0,109.7,13.53,3.96,115.5
"2010-02-04 00:56:30",1650632,6.137,159.4,6.68,1.156,7.133,101.5241,3.188,4.365,35.83,0,109.7,13.53,3.95,121.4
"2010-02-04 00:57:00",1650633,5.049,152.5,4.921,0.763,5.178,101.5204,3.179,4.346,35.86,0,109.7,13.54,3.94,114.5
"2010-02-04 00:57:30",1650634,6.54,166.5,6.199,1.065,8.17,101.5159,3.167,4.397,36.01,0,109.7,13.54,3.93,128.5
"2010-02-04 00:58:00",1650635,6.247,160,6.191,1.186,7.649,101.5119,3.157,4.429,36.03,0,109.7,13.54,3.92,122.0
"2010-02-04 00:58:30",1650636,6.582,158.3,8.31,1.284,7.514,101.5105,3.154,4.432,36.07,0,109.6,13.54,3.92,120.3
"2010-02-04 00:59:00",1650637,5.947,158.5,8.26,1.191,6.412,101.5091,3.15,4.279,35.99,0,109.7,13.54,3.91,120.5
"2010-02-04 00:59:30",1650638,5.687,162.2,5.588,1.203,6.927,101.5054,3.141,4.364,36.07,0,109.7,13.54,3.90,124.2
"2010-02-04 01:00:00",1650639,6.031,156.5,6.264,1.078,5.517,101.5015,3.13,4.248,35.96,0,109.7,13.54,3.89,118.5
"2010-02-04 01:00:30",1650640,7.75,160.1,6.603,1.256,7.909,101.5001,3.127,4.412,36.11,0,109.7,13.54,3.89,122.1
"2010-02-04 01:01:00",1650641,7.699,164.8,4.689,0.964,8.05,101.5001,3.127,4.406,36.12,0,109.7,13.54,3.89,126.8
"2010-02-04 01:01:30",1650642,6.638,161.5,7.02,1.252,7.96,101.4955,3.115,4.39,36.17,0,109.7,13.54,3.88,123.5
"2010-02-04 01:02:00",1650643,6.539,160.7,3.783,0.921,7.601,101.4958,3.116,4.414,36.15,0,109.7,13.54,3.88,122.7
"2010-02-04 01:02:30",1650644,5.343,152.8,6.779,1.54,5.636,101.4947,3.113,4.193,35.93,0,109.7,13.54,3.88,114.8
"2010-02-04 01:03:00",1650645,6.284,161.5,7.286,1.467,7.064,101.4935,3.11,4.403,36.15,0,109.7,13.54,3.87,123.5
"2010-02-04 01:03:30",1650646,6.605,155.6,6.548,1.255,7.153,101.4938,3.111,4.269,36.02,0,109.7,13.54,3.87,117.6
"2010-02-04 01:04:00",1650647,6.492,160.2,7.559,1.193,7.351,101.4941,3.112,4.376,36.17,0,109.7,13.54,3.87,122.2
"2010-02-04 01:04:30",1650648,6.653,162,7.779,0.954,8.59,101.4935,3.11,4.411,36.19,0,109.7,13.54,3.87,124.0
"2010-02-04 01:05:00",1650649,6.241,157.5,4.698,1.128,7.463,101.4935,3.11,4.453,36.25,0,109.7,13.54,3.87,119.5
"2010-02-04 01:05:30",1650650,5.634,157.3,7.195,1.144,5.717,101.4935,3.11,4.19,36.02,0,109.7,13.54,3.87,119.3
"2010-02-04 01:06:00",1650651,6.796,160.7,5.631,1.228,7.167,101.4935,3.11,4.295,35.99,0,109.7,13.54,3.87,122.7
"2010-02-04 01:06:30",1650652,5.55,153.3,6.51,1.006,5.644,101.4935,3.11,4.306,36.02,0,109.7,13.54,3.87,115.3
"2010-02-04 01:07:00",1650653,6.529,158.1,7.253,1.137,7.994,101.4935,3.11,4.421,36.23,0,109.7,13.54,3.87,120.1
"2010-02-04 01:07:30",1650654,7.245,159.1,5.124,0.99,8.34,101.4935,3.11,4.384,36.19,0,109.7,13.54,3.87,121.1
"2010-02-04 01:08:00",1650655,6.766,157.8,7.185,1.181,7.786,101.4935,3.11,4.401,36.23,0,109.7,13.54,3.87,119.8
"2010-02-04 01:08:30",1650656,6.584,159.7,5.399,1.055,7.188,101.4935,3.11,4.39,36.22,0,109.7,13.54,3.87,121.7
"2010-02-04 01:09:00",1650657,6.714,156.2,5.608,1.223,6.564,101.4935,3.11,4.222,36.08,0,109.7,13.54,3.87,118.2
"2010-02-04 01:09:30",1650658,6.042,153.4,5.658,1.153,6.035,101.4935,3.11,4.33,36.22,0,109.7,13.54,3.87,115.4
"2010-02-04 01:10:00",1650659,6.756,156.2,6.104,1.165,7.979,101.4935,3.11,4.33,36.23,0,109.7,13.54,3.87,118.2
"2010-02-04 01:10:30",1650660,7.184,162.9,5.277,0.921,8.8,101.4935,3.11,4.404,36.37,0,109.7,13.54,3.87,124.9
"2010-02-04 01:11:00",1650661,6.705,160.4,5.934,1.307,7.456,101.4935,3.11,4.382,36.34,0,109.7,13.54,3.87,122.4
"2010-02-04 01:11:30",1650662,6.821,156.2,7.604,1.238,7.718,101.4935,3.11,4.376,36.38,0,109.7,13.54,3.87,118.2
"2010-02-04 01:12:00",1650663,5.663,147.7,8.22,1.356,5.198,101.4935,3.11,4.246,36.26,0,109.7,13.54,3.87,109.7
"2010-02-04 01:12:30",1650664,6.347,156.7,5.873,1.211,6.904,101.4935,3.11,4.325,36.39,0,109.7,13.54,3.87,118.7
"2010-02-04 01:13:00",1650665,5.682,152.7,4.011,0.989,5.545,101.4935,3.11,4.254,36.27,0,109.7,13.54,3.87,114.7
"2010-02-04 01:13:30",1650666,6.304,157.1,7.914,1.319,7.398,101.4935,3.11,4.414,36.44,0,109.7,13.54,3.87,119.1
"2010-02-04 01:14:00",1650667,6.429,160.1,8.13,1.083,7.844,101.4935,3.11,4.363,36.31,0,109.7,13.54,3.87,122.1
"2010-02-04 01:14:30",1650668,6.412,159.7,6.855,1.02,7.837,101.4935,3.11,4.403,36.46,0,109.7,13.54,3.87,121.7
"2010-02-04 01:15:00",1650669,7.246,157.3,6.284,1.082,7.471,101.4935,3.11,4.284,36.3,0,109.7,13.54,3.87,119.3
"2010-02-04 01:15:30",1650670,6.817,150.7,7.463,1.141,6.89,101.4933,3.11,4.28,36.27,0,109.7,13.54,3.87,112.7
"2010-02-04 01:16:00",1650671,6.307,148.8,8.69,1.103,6.2,101.4935,3.11,4.319,36.26,0,109.7,13.54,3.87,110.8
"2010-02-04 01:16:30",1650672,6.323,153.6,6.897,1.112,7.468,101.493,3.109,4.342,36.34,0,109.7,13.54,3.87,115.6
"2010-02-04 01:17:00",1650673,5.936,155.7,7.186,1.079,8.16,101.4927,3.108,4.399,36.52,0,109.7,13.54,3.87,117.7
"2010-02-04 01:17:30",1650674,7.03,155.4,7.23,1.343,7.219,101.4907,3.103,4.274,36.39,0,109.7,13.54,3.87,117.4
"2010-02-04 01:18:00",1650675,6.681,156.4,9.86,1.269,6.852,101.4856,3.09,4.317,36.45,0,109.7,13.54,3.85,118.4
"2010-02-04 01:18:30",1650676,6.736,161.6,7.146,1.056,7.341,101.4839,3.086,4.292,36.33,0,109.7,13.54,3.85,123.6
"2010-02-04 01:19:00",1650677,6.155,155.8,9.04,1.396,5.593,101.4808,3.078,4.221,36.28,0,109.7,13.54,3.84,117.8
"2010-02-04 01:19:30",1650678,6.953,164.3,7.36,1.118,7.862,101.4774,3.069,4.32,36.48,0,109.7,13.54,3.83,126.3
"2010-02-04 01:20:00",1650679,7.629,161.6,4.695,1.024,8.25,101.4712,3.053,4.332,36.43,0,109.7,13.54,3.82,123.6
"2010-02-04 01:20:30",1650680,7.357,157.4,6.956,1.111,7.942,101.4672,3.043,4.356,36.47,0,109.7,13.54,3.81,119.4
"2010-02-04 01:21:00",1650681,6.308,158,9.47,1.22,7.514,101.4636,3.034,4.324,36.44,0,109.7,13.54,3.80,120.0
"2010-02-04 01:21:30",1650682,6.391,157.5,10.38,1.148,6.358,101.4605,3.026,4.175,36.36,0,109.7,13.54,3.79,119.5
"2010-02-04 01:22:00",1650683,6.168,157.5,4.973,1.315,5.447,101.4599,3.024,4.124,36.19,0,109.7,13.54,3.79,119.5
"2010-02-04 01:22:30",1650684,7.252,160.9,7.127,1.243,7.45,101.4602,3.025,4.326,36.48,0,109.7,13.54,3.79,122.9
"2010-02-04 01:23:00",1650685,6.989,159.6,7.506,1.058,7.832,101.4596,3.024,4.272,36.52,0,109.7,13.54,3.79,121.6
"2010-02-04 01:23:30",1650686,7.036,162.5,6.438,1.029,8.14,101.4596,3.024,4.327,36.63,0,109.7,13.54,3.79,124.5
"2010-02-04 01:24:00",1650687,7.318,167,7.755,1.043,8.42,101.4596,3.024,4.386,36.64,0,109.7,13.54,3.79,129.0
"2010-02-04 01:24:30",1650688,6.695,165.8,7.088,1.241,6.883,101.4596,3.024,4.267,36.48,0,109.7,13.54,3.79,127.8
"2010-02-04 01:25:00",1650689,5.992,155.1,8.67,1.071,5.895,101.4596,3.024,4.16,36.4,0,109.7,13.54,3.79,117.1
"2010-02-04 01:25:30",1650690,6.777,157.3,5.727,1.179,6.502,101.4596,3.024,4.288,36.66,0,109.7,13.54,3.79,119.3
"2010-02-04 01:26:00",1650691,6.34,157.3,6.19,1.129,6.73,101.4596,3.024,4.254,36.65,0,109.7,13.54,3.79,119.3
"2010-02-04 01:26:30",1650692,6.892,164,5.076,1.122,8.63,101.4596,3.024,4.306,36.83,0,109.7,13.54,3.79,126.0
"2010-02-04 01:27:00",1650693,6.745,162.8,6.167,0.902,8.25,101.4596,3.024,4.322,36.82,0,109.7,13.54,3.79,124.8
"2010-02-04 01:27:30",1650694,5.477,160.7,8.27,1.292,5.957,101.4596,3.024,4.205,36.81,0,109.7,13.54,3.79,122.7
"2010-02-04 01:28:00",1650695,5.799,158.7,6.208,1.721,5.468,101.4596,3.024,4.183,36.84,0,109.7,13.54,3.79,120.7
"2010-02-04 01:28:30",1650696,5.063,150.2,3.797,0.371,3.986,101.4596,3.024,4.109,36.63,0,109.7,13.57,3.79,112.2
"2010-02-04 01:29:00",1650697,6.325,159.4,6.264,1.164,7.722,101.4582,3.02,4.264,36.89,0,109.7,13.54,3.78,121.4
"2010-02-04 01:29:30",1650698,6.835,161.9,5.522,0.643,9.14,101.4531,3.007,4.338,37.08,0,109.7,13.54,3.77,123.9
"2010-02-04 01:30:00",1650699,7.801,161.6,4.111,0.611,8.81,101.4387,2.97,4.328,37.05,0,109.7,13.54,3.73,123.6
"2010-02-04 01:30:30",1650700,6.812,158.6,5.257,1.146,7.377,101.4271,2.941,4.253,37.02,0,109.7,13.54,3.70,120.6
"2010-02-04 01:31:00",1650701,5.5,150.5,5.088,0.922,4.423,101.4259,2.938,4.101,36.86,0,109.7,13.54,3.70,112.5
"2010-02-04 01:31:30",1650702,6.755,159.9,7.023,1.02,7.242,101.4257,2.937,4.179,36.93,0,109.7,13.54,3.70,121.9
"2010-02-04 01:32:00",1650703,7.362,158.4,7.611,1.173,7.612,101.4257,2.937,4.226,37.03,0,109.7,13.55,3.70,120.4
"2010-02-04 01:32:30",1650704,7.403,162.1,4.998,0.624,9,101.4257,2.937,4.304,37.17,0,109.7,13.55,3.70,124.1
"2010-02-04 01:33:00",1650705,7.388,164.4,3.513,0.786,8.7,101.4257,2.937,4.291,37.31,0,109.7,13.55,3.70,126.4
"2010-02-04 01:33:30",1650706,5.827,157.5,9.37,1.204,6.092,101.4257,2.937,4.126,37.21,0,109.7,13.55,3.70,119.5
"2010-02-04 01:34:00",1650707,5.827,158.8,6.839,1.375,5.464,101.4257,2.937,4.124,37.27,0,109.7,13.54,3.70,120.8
"2010-02-04 01:34:30",1650708,6.638,157.1,6.48,1.043,5.711,101.4257,2.937,4.087,37.09,0,109.7,13.55,3.70,119.1
"2010-02-04 01:35:00",1650709,7.154,155.3,7.056,1.277,6.811,101.4257,2.937,4.161,37.06,0,109.7,13.55,3.70,117.3
"2010-02-04 01:35:30",1650710,8.47,163.7,3.017,0.896,8.99,101.4257,2.937,4.292,37.17,0,109.7,13.55,3.70,125.7
"2010-02-04 01:36:00",1650711,8.56,164.2,4.481,0.585,9.16,101.4245,2.934,4.245,37.22,0,109.7,13.55,3.70,126.2
"2010-02-04 01:36:30",1650712,6.979,157.8,7.484,1.318,6.723,101.4225,2.929,4.182,37.23,0,109.7,13.55,3.69,119.8
"2010-02-04 01:37:00",1650713,7.496,159.3,8,1.342,7.283,101.4158,2.912,4.144,37.26,0,109.7,13.55,3.67,121.3
"2010-02-04 01:37:30",1650714,7.054,157.5,5.87,1.345,5.895,101.4129,2.905,4.093,37.3,0,109.7,13.55,3.67,119.5
"2010-02-04 01:38:00",1650715,7.627,162.9,7.024,1.15,7.531,101.4141,2.907,4.149,37.31,0,109.7,13.55,3.67,124.9
"2010-02-04 01:38:30",1650716,7.097,161.9,7.492,1.193,7.499,101.407,2.889,4.194,37.33,0,109.7,13.55,3.65,123.9
"2010-02-04 01:39:00",1650717,8.43,165.2,5.582,0.95,8.27,101.405,2.884,4.164,37.32,0,109.7,13.55,3.65,127.2
"2010-02-04 01:39:30",1650718,7.77,164.4,6.518,1.22,7.374,101.4005,2.873,4.185,37.22,0,109.7,13.55,3.63,126.4
"2010-02-04 01:40:00",1650719,8.76,168.5,4.545,0.737,8.85,101.3996,2.871,4.22,37.21,0,109.7,13.55,3.63,130.5
"2010-02-04 01:40:30",1650720,7.779,164.2,6.016,1.221,7.112,101.3999,2.871,4.084,36.99,0,109.7,13.55,3.63,126.2
"2010-02-04 01:41:00",1650721,7.58,165.2,6.571,1.097,6.94,101.3988,2.868,4.102,37.21,0,109.7,13.55,3.63,127.2
"2010-02-04 01:41:30",1650722,6.253,154.9,5.034,1.012,4.8,101.3971,2.864,4.037,37.24,0,109.7,13.55,3.63,116.9
"2010-02-04 01:42:00",1650723,6.935,162.6,5.549,1.219,7.287,101.3974,2.865,4.162,37.46,0,109.7,13.55,3.63,124.6
"2010-02-04 01:42:30",1650724,7.062,163.4,5.492,1.078,7.84,101.3954,2.86,4.149,37.54,0,109.7,13.55,3.62,125.4
"2010-02-04 01:43:00",1650725,7.334,161.8,6.543,1.541,7.54,101.3951,2.859,4.162,37.69,0,109.7,13.55,3.62,123.8
"2010-02-04 01:43:30",1650726,7.819,172.3,4.746,0.972,8.24,101.3931,2.854,4.16,37.61,0,109.7,13.55,3.62,134.3
"2010-02-04 01:44:00",1650727,7.566,164.4,4.835,0.98,7.828,101.3926,2.853,4.104,37.25,0,109.7,13.55,3.61,126.4
"2010-02-04 01:44:30",1650728,6.172,160.9,8.02,1.108,5.737,101.3917,2.85,4.126,37.39,0,109.7,13.55,3.61,122.9
"2010-02-04 01:45:00",1650729,5.776,163,5.506,1.021,6.103,101.3917,2.85,4.047,37.57,0,109.7,13.55,3.61,125.0
"2010-02-04 01:45:30",1650730,6.444,165.2,8.77,1.655,6.613,101.3917,2.85,4.072,37.77,0,109.7,13.55,3.61,127.2
"2010-02-04 01:46:00",1650731,6.907,167.4,8.15,1.204,7.623,101.3917,2.85,4.123,37.76,0,109.7,13.55,3.61,129.4
"2010-02-04 01:46:30",1650732,6.729,167.4,6.852,0.982,8.32,101.3917,2.85,4.18,37.83,0,109.7,13.55,3.61,129.4
"2010-02-04 01:47:00",1650733,6.449,166.5,7.625,0.864,7.283,101.3917,2.85,4.151,37.8,0,109.7,13.55,3.61,128.5
"2010-02-04 01:47:30",1650734,5.708,161.1,8.11,1.459,5.814,101.392,2.851,4.03,37.67,0,109.7,13.55,3.61,123.1
"2010-02-04 01:48:00",1650735,5.134,162.6,5.968,1.224,4.947,101.3917,2.85,3.978,37.7,0,109.7,13.55,3.61,124.6